Details From MMUN - Cancun International
To MMCZ - Cozumel Intl
Flight Number -
Tags generated
Created
Modified
Stats Distance 31 nm / 58 km
Max Altitude 0 ft / 0 m
Waypoints 3
Social Downloads 0
Likes 0
Share VATSIM

Download

Looking for another format? Having issues loading an existing format? Contact us
Advertisement - Login to hide

Notes

Basic altitude profile: - Ascent Rate: 2500ft/min - Ascent Speed: 250kts - Cruise Altitude: 35000ft - Cruise Speed: 420kts - Descent Rate: 1500ft/min - Descent Speed: 250kts Options: - Use NATs: yes - Use PACOTS: yes - Use low airways: yes - Use high airways: yes

Route

MMUN CZM MMCZ

ID Type Via Altitude Latitude Longitude Leg Dist Tot Dist Heading (true) Name
O MMUN APT - 0 ft / 0 m 21.04229˚ -86.87333˚ - 0 nm - Cancun International
CZM VOR - 0 ft / 0 m 20.52206˚ -86.92928˚ 31 nm 31 nm 186° / 186° COZUMEL VOR-DME
O MMCZ APT - 0 ft / 0 m 20.52284˚ -86.92814˚ 0 nm 31 nm 53° / 53° Cozumel Intl

Altitude Profile

Advertisement - Login to hide

MMUN

Details ICAO MMUN (CUN)
Name Cancun International
Region Mexico
Timezone America/Cancun (UTC-5.0)
Stats Elevation 24 ft / 7 m (AMSL)
Location 21.042287° -86.873333°
Runways 2
Magnetic Variation 1.937° W

METAR

MMUN 210846Z 00000KT 7SM SCT015 26/24 A2988 RMK SLP116 57013 958 8/500

Decode

TAF

TAF MMUN 202319Z 2100/2206 12010KT P6SM SCT020 TX30/2119Z TN26/2110Z FM210300 12010KT P6SM SCT015 FM211500 12015KT P6SM BKN015 PROB40 2118/2122 3SM RA BKN010CB FM220100 04010KT P6SM BKN020

Decode

Departure Runways

ID Width Length Bearing (true) Bearing (mag) Surface Threshold Offset Overrun Length
12L 148 ft / 45 m 9,150 ft / 2,789 m 123.62° 125.56° Asphalt 0 ft / 0 m 200 ft / 61 m
12R 190 ft / 58 m 11,459 ft / 3,493 m 123.84° 125.78° Asphalt 0 ft / 0 m 200 ft / 61 m
30L 190 ft / 58 m 11,459 ft / 3,493 m 303.85° 305.79° Asphalt 0 ft / 0 m 200 ft / 61 m
30R 148 ft / 45 m 9,150 ft / 2,789 m 303.63° 305.57° Asphalt 0 ft / 0 m 200 ft / 61 m

MMCZ

Details ICAO MMCZ (CZM)
Name Cozumel Intl
Region Mexico
Timezone America/Cancun (UTC-5.0)
Stats Elevation 15 ft / 5 m (AMSL)
Location 20.522845° -86.928142°
Runways 2
Magnetic Variation 1.834° W

METAR

Not found

TAF

TAF MMCZ 202319Z 2100/2206 10010KT P6SM BKN015 TEMPO 2100/2103 5SM RA SCT010CB FM210300 10010KT P6SM SCT015 FM211500 12010KT P6SM BKN015 TEMPO 2118/2122 3SM RA BKN010CB FM220000 06010KT P6SM BKN020

Decode

Destination Runways

ID Width Length Bearing (true) Bearing (mag) Surface Threshold Offset Overrun Length
05 148 ft / 45 m 10,172 ft / 3,101 m 55.07° 56.90° Asphalt 2,530 ft / 771 m 0 ft / 0 m
11 148 ft / 45 m 8,866 ft / 2,702 m 115.78° 117.61° Asphalt 656 ft / 200 m 0 ft / 0 m
23 148 ft / 45 m 10,172 ft / 3,101 m 235.08° 236.91° Asphalt 0 ft / 0 m 190 ft / 58 m
29 148 ft / 45 m 8,866 ft / 2,702 m 295.79° 297.62° Asphalt 0 ft / 0 m 210 ft / 64 m

Popular Alternatives